Time,TemperatureF,DewpointF,PressureIn,WindDirection,WindDirectionDegrees,WindSpeedMPH,WindSpeedGustMPH,Humidity,HourlyPrecipIn,Conditions,Clouds,dailyrainin,SoftwareType,DateUTC
2013-06-22 00:00:00,83.5,67.2,29.93,SE,144,2.0,8.0,58,0.00,,,0.00,Wunderground v.1.15,2013-06-22 05:00:00,
2013-06-22 00:10:00,83.0,67.2,29.93,SE,141,4.0,6.0,59,0.00,,,0.00,Wunderground v.1.15,2013-06-22 05:10:00,
2013-06-22 00:15:00,82.8,67.0,29.94,SE,135,4.0,6.0,59,0.00,,,0.00,Wunderground v.1.15,2013-06-22 05:15:00,
2013-06-22 00:20:00,82.5,67.2,29.94,ESE,122,4.0,8.0,60,0.00,,,0.00,Wunderground v.1.15,2013-06-22 05:20:00,
2013-06-22 00:30:00,82.2,66.9,29.94,SSE,158,7.0,8.0,60,0.00,,,0.00,Wunderground v.1.15,2013-06-22 05:30:00,
2013-06-22 00:35:00,82.1,67.3,29.94,SE,128,8.0,9.0,61,0.00,,,0.00,Wunderground v.1.15,2013-06-22 05:35:00,
2013-06-22 00:40:00,81.9,67.1,29.94,SSE,151,8.0,8.0,61,0.00,,,0.00,Wunderground v.1.15,2013-06-22 05:40:00,
2013-06-22 00:45:00,81.8,67.0,29.94,SE,142,7.0,8.0,61,0.00,,,0.00,Wunderground v.1.15,2013-06-22 05:45:00,
2013-06-22 00:50:00,81.6,67.3,29.94,SE,142,6.0,6.0,62,0.00,,,0.00,Wunderground v.1.15,2013-06-22 05:50:00,
2013-06-22 01:00:00,81.3,67.5,29.94,SE,146,6.0,6.0,63,0.00,,,0.00,Wunderground v.1.15,2013-06-22 06:00:00,
2013-06-22 01:10:00,81.0,67.7,29.93,SE,136,5.0,8.0,64,0.00,,,0.00,Wunderground v.1.15,2013-06-22 06:10:00,
2013-06-22 01:20:00,80.7,67.4,29.93,SE,141,4.0,8.0,64,0.00,,,0.00,Wunderground v.1.15,2013-06-22 06:20:00,
2013-06-22 01:25:00,80.6,67.7,29.93,SSE,147,4.0,8.0,65,0.00,,,0.00,Wunderground v.1.15,2013-06-22 06:25:00,
2013-06-22 01:30:00,80.5,67.6,29.93,SSE,147,4.0,7.0,65,0.00,,,0.00,Wunderground v.1.15,2013-06-22 06:30:00,
2013-06-22 01:40:00,80.4,67.6,29.93,SSE,162,3.0,10.0,65,0.00,,,0.00,Wunderground v.1.15,2013-06-22 06:40:00,
2013-06-22 01:45:00,80.4,67.6,29.93,SSE,158,4.0,10.0,65,0.00,,,0.00,Wunderground v.1.15,2013-06-22 06:45:00,
2013-06-22 01:50:00,80.5,67.6,29.93,SSE,154,4.0,5.0,65,0.00,,,0.00,Wunderground v.1.15,2013-06-22 06:50:00,
2013-06-22 01:55:00,80.5,67.6,29.92,SSE,160,5.0,6.0,65,0.00,,,0.00,Wunderground v.1.15,2013-06-22 06:55:00,
2013-06-22 02:00:00,80.5,67.6,29.92,SSE,166,5.0,9.0,65,0.00,,,0.00,Wunderground v.1.15,2013-06-22 07:00:00,
2013-06-22 02:10:00,80.6,67.7,29.92,SSE,153,6.0,6.0,65,0.00,,,0.00,Wunderground v.1.15,2013-06-22 07:10:00,
2013-06-22 02:15:00,80.6,67.7,29.92,South,171,5.0,6.0,65,0.00,,,0.00,Wunderground v.1.15,2013-06-22 07:15:00,
2013-06-22 02:25:00,80.5,67.2,29.91,SSE,147,6.0,7.0,64,0.00,,,0.00,Wunderground v.1.15,2013-06-22 07:25:00,
2013-06-22 02:30:00,80.4,67.6,29.91,SE,143,7.0,8.0,65,0.00,,,0.00,Wunderground v.1.15,2013-06-22 07:30:00,
2013-06-22 02:35:00,80.4,67.1,29.91,SSE,164,7.0,8.0,64,0.00,,,0.00,Wunderground v.1.15,2013-06-22 07:35:00,
2013-06-22 02:40:00,80.4,67.6,29.92,SSE,165,6.0,6.0,65,0.00,,,0.00,Wunderground v.1.15,2013-06-22 07:40:00,
2013-06-22 02:45:00,80.3,67.5,29.92,South,174,5.0,6.0,65,0.00,,,0.00,Wunderground v.1.15,2013-06-22 07:45:00,
2013-06-22 02:55:00,80.0,67.2,29.92,SSE,160,4.0,8.0,65,0.00,,,0.00,Wunderground v.1.15,2013-06-22 07:55:00,
2013-06-22 03:00:00,79.9,67.1,29.92,SSE,162,5.0,5.0,65,0.00,,,0.00,Wunderground v.1.15,2013-06-22 08:00:00,
2013-06-22 03:10:00,79.6,67.2,29.92,South,171,5.0,5.0,66,0.00,,,0.00,Wunderground v.1.15,2013-06-22 08:10:00,
2013-06-22 03:15:00,79.5,67.1,29.92,South,178,5.0,5.0,66,0.00,,,0.00,Wunderground v.1.15,2013-06-22 08:15:00,
2013-06-22 03:20:00,79.3,67.0,29.91,SE,146,5.0,5.0,66,0.00,,,0.00,Wunderground v.1.15,2013-06-22 08:20:00,
2013-06-22 03:25:00,79.1,67.2,29.91,South,170,5.0,10.0,67,0.00,,,0.00,Wunderground v.1.15,2013-06-22 08:25:00,
2013-06-22 03:35:00,78.7,67.2,29.92,SSE,168,4.0,6.0,68,0.00,,,0.00,Wunderground v.1.15,2013-06-22 08:35:00,
2013-06-22 03:40:00,78.4,67.0,29.92,SSE,161,3.0,3.0,68,0.00,,,0.00,Wunderground v.1.15,2013-06-22 08:40:00,
2013-06-22 03:45:00,78.2,66.8,29.92,SSE,161,3.0,3.0,68,0.00,,,0.00,Wunderground v.1.15,2013-06-22 08:45:00,
2013-06-22 03:50:00,78.0,67.0,29.92,SSE,163,3.0,4.0,69,0.00,,,0.00,Wunderground v.1.15,2013-06-22 08:50:00,
2013-06-22 03:55:00,77.8,67.2,29.92,SSE,164,2.0,4.0,70,0.00,,,0.00,Wunderground v.1.15,2013-06-22 08:55:00,
2013-06-22 04:00:00,77.5,66.9,29.92,SSE,153,3.0,3.0,70,0.00,,,0.00,Wunderground v.1.15,2013-06-22 09:00:00,
2013-06-22 04:10:00,77.1,67.0,29.92,SSE,157,1.0,1.0,71,0.00,,,0.00,Wunderground v.1.15,2013-06-22 09:10:00,
2013-06-22 04:15:00,76.9,67.2,29.92,SSE,157,1.0,1.0,72,0.00,,,0.00,Wunderground v.1.15,2013-06-22 09:15:00,
2013-06-22 04:25:00,76.3,67.0,29.92,SSE,153,1.0,8.0,73,0.00,,,0.00,Wunderground v.1.15,2013-06-22 09:25:00,
2013-06-22 04:30:00,76.0,66.7,29.92,SSE,147,2.0,7.0,73,0.00,,,0.00,Wunderground v.1.15,2013-06-22 09:30:00,
2013-06-22 04:35:00,75.8,66.9,29.92,SSE,153,4.0,8.0,74,0.00,,,0.00,Wunderground v.1.15,2013-06-22 09:35:00,
2013-06-22 04:40:00,75.6,66.7,29.92,SSE,159,4.0,7.0,74,0.00,,,0.00,Wunderground v.1.15,2013-06-22 09:40:00,
2013-06-22 04:50:00,75.3,66.8,29.93,SSE,161,2.0,6.0,75,0.00,,,0.00,Wunderground v.1.15,2013-06-22 09:50:00,
2013-06-22 04:55:00,75.2,66.7,29.93,SSE,161,2.0,6.0,75,0.00,,,0.00,Wunderground v.1.15,2013-06-22 09:55:00,
2013-06-22 05:00:00,75.1,66.6,29.92,SSE,163,2.0,2.0,75,0.00,,,0.00,Wunderground v.1.15,2013-06-22 10:00:00,
2013-06-22 05:10:00,75.0,66.9,29.92,SSE,160,1.0,1.0,76,0.00,,,0.00,Wunderground v.1.15,2013-06-22 10:10:00,
2013-06-22 05:15:00,74.9,66.8,29.92,SSE,165,1.0,4.0,76,0.00,,,0.00,Wunderground v.1.15,2013-06-22 10:15:00,
2013-06-22 05:20:00,74.8,66.7,29.92,SSE,166,1.0,1.0,76,0.00,,,0.00,Wunderground v.1.15,2013-06-22 10:20:00,
2013-06-22 05:25:00,74.6,66.9,29.92,SSE,161,1.0,6.0,77,0.00,,,0.00,Wunderground v.1.15,2013-06-22 10:25:00,
2013-06-22 05:35:00,74.3,67.0,29.93,SSE,151,3.0,4.0,78,0.00,,,0.00,Wunderground v.1.15,2013-06-22 10:35:00,
2013-06-22 05:40:00,74.2,66.9,29.93,SSE,152,3.0,3.0,78,0.00,,,0.00,Wunderground v.1.15,2013-06-22 10:40:00,
2013-06-22 05:45:00,74.1,66.8,29.93,SSE,155,1.0,3.0,78,0.00,,,0.00,Wunderground v.1.15,2013-06-22 10:45:00,
2013-06-22 05:50:00,74.0,66.7,29.93,SSE,155,1.0,2.0,78,0.00,,,0.00,Wunderground v.1.15,2013-06-22 10:50:00,
2013-06-22 06:00:00,73.8,66.9,29.94,SSE,155,0.0,0.0,79,0.00,,,0.00,Wunderground v.1.15,2013-06-22 11:00:00,
2013-06-22 06:10:00,73.5,66.9,29.94,SSE,148,1.0,8.0,80,0.00,,,0.00,Wunderground v.1.15,2013-06-22 11:10:00,
2013-06-22 06:15:00,73.5,66.9,29.94,SSE,150,3.0,8.0,80,0.00,,,0.00,Wunderground v.1.15,2013-06-22 11:15:00,
2013-06-22 06:20:00,73.4,66.9,29.94,SSE,151,3.0,6.0,80,0.00,,,0.00,Wunderground v.1.15,2013-06-22 11:20:00,
2013-06-22 06:25:00,73.4,67.2,29.94,SSE,154,2.0,6.0,81,0.00,,,0.00,Wunderground v.1.15,2013-06-22 11:25:00,
2013-06-22 06:30:00,73.3,67.1,29.94,SSE,150,1.0,1.0,81,0.00,,,0.00,Wunderground v.1.15,2013-06-22 11:30:00,
2013-06-22 06:40:00,73.2,67.4,29.95,SSE,151,0.0,0.0,82,0.00,,,0.00,Wunderground v.1.15,2013-06-22 11:40:00,
2013-06-22 06:45:00,73.1,67.3,29.95,SSE,150,1.0,1.0,82,0.00,,,0.00,Wunderground v.1.15,2013-06-22 11:45:00,
2013-06-22 06:50:00,73.2,67.4,29.95,SSE,149,1.0,1.0,82,0.00,,,0.00,Wunderground v.1.15,2013-06-22 11:50:00,
2013-06-22 06:55:00,73.2,67.7,29.96,SSE,158,1.0,1.0,83,0.00,,,0.00,Wunderground v.1.15,2013-06-22 11:55:00,
2013-06-22 07:00:00,73.3,67.8,29.96,SSE,159,2.0,2.0,83,0.00,,,0.00,Wunderground v.1.15,2013-06-22 12:00:00,
2013-06-22 07:10:00,73.4,67.9,29.96,SSE,157,1.0,1.0,83,0.00,,,0.00,Wunderground v.1.15,2013-06-22 12:10:00,
2013-06-22 07:15:00,73.6,68.5,29.97,South,175,1.0,1.0,84,0.00,,,0.00,Wunderground v.1.15,2013-06-22 12:15:00,
2013-06-22 07:25:00,74.0,68.9,29.96,SSE,151,1.0,6.0,84,0.00,,,0.00,Wunderground v.1.15,2013-06-22 12:25:00,
2013-06-22 07:30:00,74.3,69.1,29.96,South,186,2.0,7.0,84,0.00,,,0.00,Wunderground v.1.15,2013-06-22 12:30:00,
2013-06-22 07:35:00,74.5,69.3,29.97,SSW,194,2.0,7.0,84,0.00,,,0.00,Wunderground v.1.15,2013-06-22 12:35:00,
2013-06-22 07:45:00,74.9,69.7,29.97,South,173,3.0,7.0,84,0.00,,,0.00,Wunderground v.1.15,2013-06-22 12:45:00,
2013-06-22 07:50:00,75.1,69.9,29.97,SSE,167,3.0,6.0,84,0.00,,,0.00,Wunderground v.1.15,2013-06-22 12:50:00,
2013-06-22 07:55:00,75.2,70.0,29.97,SSW,192,3.0,6.0,84,0.00,,,0.00,Wunderground v.1.15,2013-06-22 12:55:00,
2013-06-22 08:00:00,75.5,70.7,29.98,SSE,168,2.0,2.0,85,0.00,,,0.00,Wunderground v.1.15,2013-06-22 13:00:00,
2013-06-22 08:10:00,76.2,70.7,29.98,South,182,3.0,3.0,83,0.00,,,0.00,Wunderground v.1.15,2013-06-22 13:10:00,
2013-06-22 08:15:00,76.6,71.0,29.98,South,185,5.0,5.0,83,0.00,,,0.00,Wunderground v.1.15,2013-06-22 13:15:00,
2013-06-22 08:20:00,77.0,71.1,29.98,SSE,165,4.0,4.0,82,0.00,,,0.00,Wunderground v.1.15,2013-06-22 13:20:00,
2013-06-22 08:30:00,77.7,71.8,29.98,South,173,6.0,6.0,82,0.00,,,0.00,Wunderground v.1.15,2013-06-22 13:30:00,
2013-06-22 08:35:00,78.1,72.2,29.98,South,171,5.0,6.0,82,0.00,,,0.00,Wunderground v.1.15,2013-06-22 13:35:00,
2013-06-22 08:40:00,78.4,72.1,29.98,SSE,158,6.0,9.0,81,0.00,,,0.00,Wunderground v.1.15,2013-06-22 13:40:00,
2013-06-22 08:45:00,78.5,71.8,29.98,SSW,192,7.0,9.0,80,0.00,,,0.00,Wunderground v.1.15,2013-06-22 13:45:00,
2013-06-22 08:50:00,78.8,72.1,29.98,South,183,5.0,5.0,80,0.00,,,0.00,Wunderground v.1.15,2013-06-22 13:50:00,
2013-06-22 09:00:00,79.6,72.5,29.98,SSW,197,5.0,15.0,79,0.00,,,0.00,Wunderground v.1.15,2013-06-22 14:00:00,
2013-06-22 09:10:00,80.2,72.7,29.98,South,175,7.0,7.0,78,0.00,,,0.00,Wunderground v.1.15,2013-06-22 14:10:00,
2013-06-22 09:15:00,80.6,72.7,29.98,SW,215,7.0,7.0,77,0.00,,,0.00,Wunderground v.1.15,2013-06-22 14:15:00,
2013-06-22 09:20:00,80.9,72.6,29.98,SSE,159,8.0,10.0,76,0.00,,,0.00,Wunderground v.1.15,2013-06-22 14:20:00,
2013-06-22 09:25:00,81.2,72.9,29.98,South,178,8.0,10.0,76,0.00,,,0.00,Wunderground v.1.15,2013-06-22 14:25:00,
2013-06-22 09:30:00,81.8,73.5,29.98,SE,145,7.0,11.0,76,0.00,,,0.00,Wunderground v.1.15,2013-06-22 14:30:00,
2013-06-22 09:40:00,82.4,72.9,29.98,South,181,9.0,9.0,73,0.00,,,0.00,Wunderground v.1.15,2013-06-22 14:40:00,
2013-06-22 09:45:00,82.6,73.1,29.98,South,181,7.0,10.0,73,0.00,,,0.00,Wunderground v.1.15,2013-06-22 14:45:00,
2013-06-22 09:50:00,83.0,73.0,29.98,South,183,7.0,7.0,72,0.00,,,0.00,Wunderground v.1.15,2013-06-22 14:50:00,
2013-06-22 09:55:00,83.3,73.3,29.98,South,175,8.0,8.0,72,0.00,,,0.00,Wunderground v.1.15,2013-06-22 14:55:00,
2013-06-22 10:00:00,83.6,73.2,29.97,SSE,167,8.0,8.0,71,0.00,,,0.00,Wunderground v.1.15,2013-06-22 15:00:00,
2013-06-22 10:10:00,84.1,72.8,29.98,SSW,194,8.0,8.0,69,0.00,,,0.00,Wunderground v.1.15,2013-06-22 15:10:00,
2013-06-22 10:20:00,84.7,73.4,29.97,SSE,156,6.0,10.0,69,0.00,,,0.00,Wunderground v.1.15,2013-06-22 15:20:00,
2013-06-22 10:25:00,84.8,73.1,29.97,SE,141,8.0,10.0,68,0.00,,,0.00,Wunderground v.1.15,2013-06-22 15:25:00,
2013-06-22 10:30:00,85.0,74.1,29.97,SSE,158,8.0,8.0,70,0.00,,,0.00,Wunderground v.1.15,2013-06-22 15:30:00,
2013-06-22 10:35:00,85.3,73.1,29.97,South,186,7.0,10.0,67,0.00,,,0.00,Wunderground v.1.15,2013-06-22 15:35:00,
2013-06-22 10:40:00,85.4,73.2,29.97,South,184,7.0,7.0,67,0.00,,,0.00,Wunderground v.1.15,2013-06-22 15:40:00,
2013-06-22 10:50:00,85.3,72.6,29.97,SSE,166,9.0,12.0,66,0.00,,,0.00,Wunderground v.1.15,2013-06-22 15:50:00,
2013-06-22 10:55:00,85.3,72.6,29.98,SSW,196,11.0,12.0,66,0.00,,,0.00,Wunderground v.1.15,2013-06-22 15:55:00,
2013-06-22 11:00:00,86.2,73.0,29.98,South,173,8.0,12.0,65,0.00,,,0.00,Wunderground v.1.15,2013-06-22 16:00:00,
2013-06-22 11:10:00,86.7,72.6,29.98,South,182,9.0,9.0,63,0.00,,,0.00,Wunderground v.1.15,2013-06-22 16:10:00,
2013-06-22 11:15:00,86.5,73.3,29.98,SW,217,9.0,9.0,65,0.00,,,0.00,Wunderground v.1.15,2013-06-22 16:15:00,
2013-06-22 11:20:00,86.7,74.0,29.98,South,171,7.0,13.0,66,0.00,,,0.00,Wunderground v.1.15,2013-06-22 16:20:00,
2013-06-22 11:25:00,86.8,72.2,29.98,SSW,195,8.0,13.0,62,0.00,,,0.00,Wunderground v.1.15,2013-06-22 16:25:00,
2013-06-22 11:30:00,87.1,73.0,29.98,SSW,194,8.0,8.0,63,0.00,,,0.00,Wunderground v.1.15,2013-06-22 16:30:00,
2013-06-22 11:40:00,87.9,72.8,29.99,SSW,199,7.0,7.0,61,0.00,,,0.00,Wunderground v.1.15,2013-06-22 16:40:00,
2013-06-22 11:45:00,87.9,73.7,29.99,South,171,8.0,8.0,63,0.00,,,0.00,Wunderground v.1.15,2013-06-22 16:45:00,
2013-06-22 11:50:00,88.1,73.9,29.98,SSW,198,8.0,8.0,63,0.00,,,0.00,Wunderground v.1.15,2013-06-22 16:50:00,
2013-06-22 11:55:00,88.2,73.5,29.98,SSW,209,8.0,8.0,62,0.00,,,0.00,Wunderground v.1.15,2013-06-22 16:55:00,
2013-06-22 12:00:00,88.4,72.7,29.98,South,175,7.0,12.0,60,0.00,,,0.00,Wunderground v.1.15,2013-06-22 17:00:00,
2013-06-22 12:10:00,88.5,72.8,29.98,SSE,166,9.0,17.0,60,0.00,,,0.00,Wunderground v.1.15,2013-06-22 17:10:00,
2013-06-22 12:15:00,88.6,72.4,29.98,SSE,168,7.0,17.0,59,0.00,,,0.00,Wunderground v.1.15,2013-06-22 17:15:00,
2013-06-22 12:25:00,89.1,71.9,29.98,South,189,10.0,14.0,57,0.00,,,0.00,Wunderground v.1.15,2013-06-22 17:25:00,
2013-06-22 12:30:00,89.2,72.0,29.98,South,190,8.0,14.0,57,0.00,,,0.00,Wunderground v.1.15,2013-06-22 17:30:00,
2013-06-22 12:35:00,88.9,72.2,29.98,SSE,153,8.0,14.0,58,0.00,,,0.00,Wunderground v.1.15,2013-06-22 17:35:00,
2013-06-22 12:45:00,89.7,74.0,29.98,SSE,157,6.0,10.0,60,0.00,,,0.00,Wunderground v.1.15,2013-06-22 17:45:00,
2013-06-22 12:50:00,89.6,72.9,29.97,South,172,9.0,14.0,58,0.00,,,0.00,Wunderground v.1.15,2013-06-22 17:50:00,
2013-06-22 12:55:00,89.7,73.0,29.97,South,190,11.0,14.0,58,0.00,,,0.00,Wunderground v.1.15,2013-06-22 17:55:00,
2013-06-22 13:00:00,90.2,73.9,29.97,South,169,9.0,9.0,59,0.00,,,0.00,Wunderground v.1.15,2013-06-22 18:00:00,
2013-06-22 13:10:00,90.4,72.0,29.97,SSW,205,8.0,10.0,55,0.00,,,0.00,Wunderground v.1.15,2013-06-22 18:10:00,
2013-06-22 13:15:00,90.4,72.6,29.96,SSE,166,8.0,17.0,56,0.00,,,0.00,Wunderground v.1.15,2013-06-22 18:15:00,
2013-06-22 13:20:00,90.5,71.6,29.97,SSW,213,8.0,8.0,54,0.00,,,0.00,Wunderground v.1.15,2013-06-22 18:20:00,
2013-06-22 13:25:00,90.9,74.1,29.96,SE,140,8.0,8.0,58,0.00,,,0.00,Wunderground v.1.15,2013-06-22 18:25:00,
2013-06-22 13:35:00,91.0,73.1,29.95,SSW,200,9.0,13.0,56,0.00,,,0.00,Wunderground v.1.15,2013-06-22 18:35:00,
2013-06-22 13:40:00,91.1,72.7,29.95,South,170,8.0,11.0,55,0.00,,,0.00,Wunderground v.1.15,2013-06-22 18:40:00,
2013-06-22 13:45:00,91.4,71.3,29.95,SSE,159,10.0,11.0,52,0.00,,,0.00,Wunderground v.1.15,2013-06-22 18:45:00,
2013-06-22 13:50:00,91.6,72.0,29.94,SSE,161,10.0,14.0,53,0.00,,,0.00,Wunderground v.1.15,2013-06-22 18:50:00,
2013-06-22 13:55:00,91.9,71.8,29.94,South,186,9.0,14.0,52,0.00,,,0.00,Wunderground v.1.15,2013-06-22 18:55:00,
2013-06-22 14:00:00,92.0,71.3,29.94,South,178,8.0,11.0,51,0.00,,,0.00,Wunderground v.1.15,2013-06-22 19:00:00,
2013-06-22 14:10:00,92.4,72.2,29.93,SE,135,7.0,8.0,52,0.00,,,0.00,Wunderground v.1.15,2013-06-22 19:10:00,
2013-06-22 14:20:00,92.6,71.8,29.93,SSE,151,9.0,9.0,51,0.00,,,0.00,Wunderground v.1.15,2013-06-22 19:20:00,
2013-06-22 14:25:00,92.8,72.0,29.93,SSW,207,8.0,9.0,51,0.00,,,0.00,Wunderground v.1.15,2013-06-22 19:25:00,
2013-06-22 14:30:00,92.9,71.5,29.92,South,175,7.0,14.0,50,0.00,,,0.00,Wunderground v.1.15,2013-06-22 19:30:00,
2013-06-22 14:35:00,92.9,70.9,29.92,SSE,154,9.0,14.0,49,0.00,,,0.00,Wunderground v.1.15,2013-06-22 19:35:00,
2013-06-22 14:40:00,93.4,69.5,29.92,SE,140,9.0,12.0,46,0.00,,,0.00,Wunderground v.1.15,2013-06-22 19:40:00,
2013-06-22 14:50:00,93.3,70.7,29.92,SW,229,9.0,10.0,48,0.00,,,0.00,Wunderground v.1.15,2013-06-22 19:50:00,
2013-06-22 14:55:00,93.3,70.7,29.92,South,190,9.0,10.0,48,0.00,,,0.00,Wunderground v.1.15,2013-06-22 19:55:00,
2013-06-22 15:00:00,93.4,71.4,29.91,SSW,212,8.0,8.0,49,0.00,,,0.00,Wunderground v.1.15,2013-06-22 20:00:00,
2013-06-22 15:10:00,93.5,70.9,29.91,SSW,204,8.0,8.0,48,0.00,,,0.00,Wunderground v.1.15,2013-06-22 20:10:00,
2013-06-22 15:15:00,93.6,71.0,29.91,South,179,8.0,10.0,48,0.00,,,0.00,Wunderground v.1.15,2013-06-22 20:15:00,
2013-06-22 15:20:00,94.4,72.3,29.91,South,187,7.0,7.0,49,0.00,,,0.00,Wunderground v.1.15,2013-06-22 20:20:00,
2013-06-22 15:30:00,94.1,69.5,29.90,SE,142,10.0,10.0,45,0.00,,,0.00,Wunderground v.1.15,2013-06-22 20:30:00,
2013-06-22 15:35:00,94.0,70.1,29.91,SSW,198,11.0,11.0,46,0.00,,,0.00,Wunderground v.1.15,2013-06-22 20:35:00,
2013-06-22 15:40:00,94.1,70.2,29.90,South,187,9.0,9.0,46,0.00,,,0.00,Wunderground v.1.15,2013-06-22 20:40:00,
2013-06-22 15:45:00,94.6,69.3,29.89,SW,215,8.0,20.0,44,0.00,,,0.00,Wunderground v.1.15,2013-06-22 20:45:00,
2013-06-22 15:50:00,94.6,71.2,29.90,South,186,8.0,8.0,47,0.00,,,0.00,Wunderground v.1.15,2013-06-22 20:50:00,
2013-06-22 16:00:00,94.6,70.6,29.89,South,183,10.0,18.0,46,0.00,,,0.00,Wunderground v.1.15,2013-06-22 21:00:00,
2013-06-22 16:10:00,94.8,70.1,29.89,South,189,9.0,15.0,45,0.00,,,0.00,Wunderground v.1.15,2013-06-22 21:10:00,
2013-06-22 16:15:00,94.7,69.4,29.89,SSW,197,10.0,15.0,44,0.00,,,0.00,Wunderground v.1.15,2013-06-22 21:15:00,
2013-06-22 16:20:00,94.6,70.0,29.88,SSE,151,11.0,11.0,45,0.00,,,0.00,Wunderground v.1.15,2013-06-22 21:20:00,
2013-06-22 16:25:00,94.7,70.7,29.88,South,173,10.0,11.0,46,0.00,,,0.00,Wunderground v.1.15,2013-06-22 21:25:00,
2013-06-22 16:30:00,94.9,70.2,29.88,SSW,204,8.0,8.0,45,0.00,,,0.00,Wunderground v.1.15,2013-06-22 21:30:00,
2013-06-22 16:35:00,95.1,71.1,29.88,South,179,8.0,8.0,46,0.00,,,0.00,Wunderground v.1.15,2013-06-22 21:35:00,
2013-06-22 16:45:00,95.3,70.6,29.88,South,174,8.0,13.0,45,0.00,,,0.00,Wunderground v.1.15,2013-06-22 21:45:00,
2013-06-22 16:50:00,95.3,69.3,29.87,South,186,9.0,14.0,43,0.00,,,0.00,Wunderground v.1.15,2013-06-22 21:50:00,
2013-06-22 16:55:00,95.2,69.8,29.88,SSW,202,10.0,14.0,44,0.00,,,0.00,Wunderground v.1.15,2013-06-22 21:55:00,
2013-06-22 17:00:00,95.4,70.0,29.87,South,172,9.0,9.0,44,0.00,,,0.00,Wunderground v.1.15,2013-06-22 22:00:00,
2013-06-22 17:10:00,95.6,70.2,29.87,South,174,7.0,9.0,44,0.00,,,0.00,Wunderground v.1.15,2013-06-22 22:10:00,
2013-06-22 17:15:00,95.6,71.5,29.87,South,189,7.0,9.0,46,0.00,,,0.00,Wunderground v.1.15,2013-06-22 22:15:00,
2013-06-22 17:25:00,95.6,69.5,29.87,SSW,198,9.0,9.0,43,0.00,,,0.00,Wunderground v.1.15,2013-06-22 22:25:00,
2013-06-22 17:30:00,95.6,69.5,29.86,South,178,7.0,7.0,43,0.00,,,0.00,Wunderground v.1.15,2013-06-22 22:30:00,
2013-06-22 17:35:00,95.4,70.0,29.86,SSE,150,6.0,7.0,44,0.00,,,0.00,Wunderground v.1.15,2013-06-22 22:35:00,
2013-06-22 17:40:00,95.4,69.4,29.86,SSE,157,7.0,7.0,43,0.00,,,0.00,Wunderground v.1.15,2013-06-22 22:40:00,
2013-06-22 17:45:00,95.3,68.6,29.85,South,190,8.0,8.0,42,0.00,,,0.00,Wunderground v.1.15,2013-06-22 22:45:00,
2013-06-22 17:55:00,95.0,69.0,29.85,South,175,9.0,15.0,43,0.00,,,0.00,Wunderground v.1.15,2013-06-22 22:55:00,
2013-06-22 18:00:00,94.8,69.5,29.85,SSE,150,10.0,12.0,44,0.00,,,0.00,Wunderground v.1.15,2013-06-22 23:00:00,
2013-06-22 18:10:00,94.9,68.9,29.85,South,172,10.0,10.0,43,0.00,,,0.00,Wunderground v.1.15,2013-06-22 23:10:00,
2013-06-22 18:15:00,95.0,69.0,29.85,South,190,8.0,10.0,43,0.00,,,0.00,Wunderground v.1.15,2013-06-22 23:15:00,
2013-06-22 18:20:00,95.2,69.8,29.84,SSE,155,6.0,14.0,44,0.00,,,0.00,Wunderground v.1.15,2013-06-22 23:20:00,
2013-06-22 18:25:00,95.1,69.8,29.85,SSE,164,8.0,14.0,44,0.00,,,0.00,Wunderground v.1.15,2013-06-22 23:25:00,
2013-06-22 18:35:00,94.8,69.5,29.84,SSE,148,11.0,11.0,44,0.00,,,0.00,Wunderground v.1.15,2013-06-22 23:35:00,
2013-06-22 18:40:00,94.6,69.3,29.84,SSE,155,10.0,12.0,44,0.00,,,0.00,Wunderground v.1.15,2013-06-22 23:40:00,
2013-06-22 18:45:00,94.5,68.5,29.84,SE,136,10.0,14.0,43,0.00,,,0.00,Wunderground v.1.15,2013-06-22 23:45:00,
2013-06-22 18:50:00,94.3,69.0,29.83,SE,141,8.0,8.0,44,0.00,,,0.00,Wunderground v.1.15,2013-06-22 23:50:00,
2013-06-22 18:55:00,94.1,68.9,29.84,SSE,150,9.0,9.0,44,0.00,,,0.00,Wunderground v.1.15,2013-06-22 23:55:00,
2013-06-22 19:00:00,94.0,68.1,29.83,SSE,161,8.0,8.0,43,0.00,,,0.00,Wunderground v.1.15,2013-06-23 00:00:00,
2013-06-22 19:10:00,93.8,67.9,29.83,SSE,158,9.0,9.0,43,0.00,,,0.00,Wunderground v.1.15,2013-06-23 00:10:00,
2013-06-22 19:20:00,93.4,67.6,29.83,SSE,159,7.0,15.0,43,0.00,,,0.00,Wunderground v.1.15,2013-06-23 00:20:00,
2013-06-22 19:25:00,93.1,68.0,29.83,SSE,155,8.0,15.0,44,0.00,,,0.00,Wunderground v.1.15,2013-06-23 00:25:00,
2013-06-22 19:30:00,92.8,67.7,29.83,South,173,7.0,10.0,44,0.00,,,0.00,Wunderground v.1.15,2013-06-23 00:30:00,
2013-06-22 19:35:00,92.5,68.1,29.83,South,171,7.0,10.0,45,0.00,,,0.00,Wunderground v.1.15,2013-06-23 00:35:00,
2013-06-22 19:40:00,92.3,67.9,29.83,SSE,148,7.0,13.0,45,0.00,,,0.00,Wunderground v.1.15,2013-06-23 00:40:00,
2013-06-22 19:50:00,91.8,68.7,29.83,SSE,155,7.0,7.0,47,0.00,,,0.00,Wunderground v.1.15,2013-06-23 00:50:00,
2013-06-22 19:55:00,91.6,67.9,29.83,SSE,153,7.0,7.0,46,0.00,,,0.00,Wunderground v.1.15,2013-06-23 00:55:00,
2013-06-22 20:00:00,91.4,68.3,29.83,SSE,148,7.0,7.0,47,0.00,,,0.00,Wunderground v.1.15,2013-06-23 01:00:00,
2013-06-22 20:10:00,90.9,68.5,29.83,SSE,155,6.0,9.0,48,0.00,,,0.00,Wunderground v.1.15,2013-06-23 01:10:00,
2013-06-22 20:20:00,90.5,68.1,29.83,SE,146,5.0,5.0,48,0.00,,,0.00,Wunderground v.1.15,2013-06-23 01:20:00,
2013-06-22 20:25:00,90.1,68.4,29.83,SSE,155,5.0,9.0,49,0.00,,,0.00,Wunderground v.1.15,2013-06-23 01:25:00,
2013-06-22 20:30:00,89.8,68.1,29.83,SSE,153,6.0,6.0,49,0.00,,,0.00,Wunderground v.1.15,2013-06-23 01:30:00,
2013-06-22 20:35:00,89.4,68.3,29.83,SE,144,6.0,7.0,50,0.00,,,0.00,Wunderground v.1.15,2013-06-23 01:35:00,
2013-06-22 20:45:00,88.9,68.4,29.83,SE,141,5.0,6.0,51,0.00,,,0.00,Wunderground v.1.15,2013-06-23 01:45:00,
2013-06-22 20:50:00,88.6,68.2,29.83,SSE,147,4.0,4.0,51,0.00,,,0.00,Wunderground v.1.15,2013-06-23 01:50:00,
2013-06-22 20:55:00,88.3,68.4,29.84,SE,140,4.0,4.0,52,0.00,,,0.00,Wunderground v.1.15,2013-06-23 01:55:00,
2013-06-22 21:00:00,88.0,68.2,29.84,SE,139,4.0,7.0,52,0.00,,,0.00,Wunderground v.1.15,2013-06-23 02:00:00,
2013-06-22 21:10:00,87.4,68.7,29.84,SE,140,3.0,4.0,54,0.00,,,0.00,Wunderground v.1.15,2013-06-23 02:10:00,
2013-06-22 21:15:00,87.1,68.4,29.84,SE,139,2.0,4.0,54,0.00,,,0.00,Wunderground v.1.15,2013-06-23 02:15:00,
2013-06-22 21:20:00,86.8,68.2,29.84,SE,142,1.0,1.0,54,0.00,,,0.00,Wunderground v.1.15,2013-06-23 02:20:00,
2013-06-22 21:30:00,86.3,68.2,29.84,SE,140,4.0,4.0,55,0.00,,,0.00,Wunderground v.1.15,2013-06-23 02:30:00,
2013-06-22 21:35:00,86.1,68.0,29.84,SSE,151,5.0,5.0,55,0.00,,,0.00,Wunderground v.1.15,2013-06-23 02:35:00,
2013-06-22 21:40:00,86.0,68.0,29.85,SSE,150,5.0,5.0,55,0.00,,,0.00,Wunderground v.1.15,2013-06-23 02:40:00,
2013-06-22 21:45:00,85.9,68.4,29.85,SSE,150,5.0,8.0,56,0.00,,,0.00,Wunderground v.1.15,2013-06-23 02:45:00,
2013-06-22 21:50:00,85.8,68.3,29.85,SSE,155,5.0,5.0,56,0.00,,,0.00,Wunderground v.1.15,2013-06-23 02:50:00,
2013-06-22 22:00:00,85.7,68.2,29.86,SE,138,6.0,6.0,56,0.00,,,0.00,Wunderground v.1.15,2013-06-23 03:00:00,
2013-06-22 22:10:00,85.6,68.6,29.86,SE,138,6.0,7.0,57,0.00,,,0.00,Wunderground v.1.15,2013-06-23 03:10:00,
2013-06-22 22:15:00,85.5,68.5,29.87,SE,144,6.0,7.0,57,0.00,,,0.00,Wunderground v.1.15,2013-06-23 03:15:00,
2013-06-22 22:20:00,85.3,68.3,29.87,SSE,148,6.0,6.0,57,0.00,,,0.00,Wunderground v.1.15,2013-06-23 03:20:00,
2013-06-22 22:25:00,85.2,68.2,29.87,SSE,153,7.0,8.0,57,0.00,,,0.00,Wunderground v.1.15,2013-06-23 03:25:00,
2013-06-22 22:30:00,85.1,68.2,29.87,SE,138,7.0,7.0,57,0.00,,,0.00,Wunderground v.1.15,2013-06-23 03:30:00,
2013-06-22 22:40:00,84.8,68.4,29.87,SE,137,6.0,8.0,58,0.00,,,0.00,Wunderground v.1.15,2013-06-23 03:40:00,
2013-06-22 22:45:00,84.7,68.3,29.87,SE,144,7.0,8.0,58,0.00,,,0.00,Wunderground v.1.15,2013-06-23 03:45:00,
2013-06-22 22:50:00,84.5,68.1,29.87,SE,145,7.0,7.0,58,0.00,,,0.00,Wunderground v.1.15,2013-06-23 03:50:00,
2013-06-22 22:55:00,84.4,68.5,29.87,SE,146,5.0,7.0,59,0.00,,,0.00,Wunderground v.1.15,2013-06-23 03:55:00,
2013-06-22 23:00:00,84.2,68.3,29.88,SSE,155,4.0,4.0,59,0.00,,,0.00,Wunderground v.1.15,2013-06-23 04:00:00,
2013-06-22 23:05:00,84.1,68.2,29.88,SSE,152,4.0,4.0,59,0.00,,,0.00,Wunderground v.1.15,2013-06-23 04:05:00,
2013-06-22 23:10:00,84.0,68.1,29.88,SE,144,5.0,6.0,59,0.00,,,0.00,Wunderground v.1.15,2013-06-23 04:10:00,
2013-06-22 23:15:00,84.0,68.1,29.87,SSE,148,6.0,6.0,59,0.00,,,0.00,Wunderground v.1.15,2013-06-23 04:15:00,
2013-06-22 23:25:00,84.0,68.1,29.88,SSE,150,6.0,12.0,59,0.00,,,0.00,Wunderground v.1.15,2013-06-23 04:25:00,
2013-06-22 23:30:00,83.9,68.0,29.88,SE,136,6.0,8.0,59,0.00,,,0.00,Wunderground v.1.15,2013-06-23 04:30:00,
2013-06-22 23:35:00,83.8,68.4,29.88,SSE,150,5.0,8.0,60,0.00,,,0.00,Wunderground v.1.15,2013-06-23 04:35:00,
2013-06-22 23:40:00,83.7,68.3,29.88,SE,144,5.0,5.0,60,0.00,,,0.00,Wunderground v.1.15,2013-06-23 04:40:00,
2013-06-22 23:45:00,83.6,68.2,29.88,SSE,152,6.0,9.0,60,0.00,,,0.00,Wunderground v.1.15,2013-06-23 04:45:00,
2013-06-22 23:55:00,83.4,68.1,29.88,SE,139,8.0,8.0,60,0.00,,,0.00,Wunderground v.1.15,2013-06-23 04:55:00,